| time (UTC) | temp F | wind direction | speed MPH | gust MPH | rain 1hr in | rain 24hr in | rain mn in | humidity % | barometer mb |
| 20260831023535 | 79 | 0.0 | 0.0 | 0.00 | 0.00 | 0.00 | 80 | 1018.8 | |
| 20260831022531 | 79 | 0.0 | 0.0 | 0.00 | 0.00 | 0.00 | 80 | 1018.6 | |
| 20260831021527 | 79 | 258 | 0.0 | 1.0 | 0.00 | 0.00 | 0.00 | 79 | 1018.7 |
| 20260831020523 | 80 | 0.0 | 0.0 | 0.00 | 0.00 | 0.00 | 79 | 1018.7 | |
| 20260831015518 | 80 | 258 | 0.0 | 1.0 | 0.00 | 0.00 | 0.00 | 78 | 1018.4 |
| 20260831014533 | 80 | 258 | 0.0 | 1.0 | 0.00 | 0.00 | 0.00 | 78 | 1018.3 |
| 20260831013529 | 81 | 258 | 0.0 | 1.0 | 0.00 | 0.00 | 0.00 | 77 | 1018.3 |
| 20260831012545 | 81 | 0.0 | 0.0 | 0.00 | 0.00 | 0.00 | 76 | 1018.1 | |
| 20260831011559 | 81 | 0.0 | 0.0 | 0.00 | 0.00 | 0.00 | 75 | 1018.0 | |
| 20260831010555 | 82 | 258 | 0.0 | 1.0 | 0.00 | 0.00 | 0.00 | 74 | 1017.9 |
| 20260831005531 | 83 | 258 | 0.0 | 1.0 | 0.00 | 0.00 | 0.00 | 73 | 1017.9 |
| 20260831004547 | 83 | 258 | 1.0 | 1.0 | 0.00 | 0.00 | 0.00 | 72 | 1018.0 |
| 20260831003522 | 84 | 258 | 0.0 | 1.0 | 0.00 | 0.00 | 0.00 | 71 | 1017.8 |
| 20260831002518 | 85 | 0.0 | 0.0 | 0.00 | 0.00 | 0.00 | 70 | 1017.7 | |
| 20260831001534 | 86 | 0.0 | 0.0 | 0.00 | 0.00 | 0.00 | 69 | 1017.9 | |
| 20260831000530 | 87 | 258 | 0.0 | 1.0 | 0.00 | 0.00 | 0.00 | 68 | 1017.9 |
| 20260830235525 | 87 | 258 | 0.0 | 1.0 | 0.00 | 0.00 | 0.00 | 68 | 1017.9 |
| 20260830234520 | 88 | 258 | 0.0 | 1.0 | 0.00 | 0.00 | 0.00 | 67 | 1017.9 |
| 20260830233516 | 88 | 258 | 0.0 | 1.0 | 0.00 | 0.00 | 0.00 | 66 | 1017.9 |
| 20260830232612 | 89 | 258 | 1.0 | 2.0 | 0.00 | 0.00 | 0.00 | 66 | 1017.9 |
| 20260830231528 | 89 | 258 | 1.0 | 2.0 | 0.00 | 0.00 | 0.00 | 65 | 1017.9 |
| 20260830230523 | 90 | 258 | 0.0 | 1.0 | 0.00 | 0.00 | 0.00 | 64 | 1017.9 |
| 20260830225519 | 90 | 258 | 1.0 | 3.0 | 0.00 | 0.00 | 0.00 | 64 | 1017.8 |
| 20260830224535 | 91 | 258 | 1.0 | 2.0 | 0.00 | 0.00 | 0.00 | 64 | 1017.8 |
| 20260830223530 | 91 | 258 | 1.0 | 3.0 | 0.00 | 0.00 | 0.00 | 64 | 1017.7 |
| 20260830222546 | 91 | 258 | 1.0 | 2.0 | 0.00 | 0.00 | 0.00 | 64 | 1017.7 |
| 20260830221522 | 92 | 233 | 2.0 | 6.0 | 0.00 | 0.00 | 0.00 | 64 | 1017.7 |
| 20260830220516 | 92 | 197 | 1.0 | 2.0 | 0.00 | 0.00 | 0.00 | 64 | 1017.9 |
| 20260830215552 | 91 | 113 | 1.0 | 4.0 | 0.00 | 0.00 | 0.00 | 64 | 1017.9 |
| 20260830214548 | 91 | 84 | 0.0 | 2.0 | 0.00 | 0.00 | 0.00 | 63 | 1017.8 |
| 20260830213523 | 92 | 166 | 1.0 | 3.0 | 0.00 | 0.00 | 0.00 | 64 | 1017.9 |
| 20260830212520 | 92 | 135 | 1.0 | 3.0 | 0.00 | 0.00 | 0.00 | 63 | 1017.9 |
| 20260830211515 | 92 | 170 | 2.0 | 4.0 | 0.00 | 0.00 | 0.00 | 63 | 1017.9 |
| 20260830210531 | 91 | 195 | 2.0 | 7.0 | 0.00 | 0.00 | 0.00 | 64 | 1018.1 |
| 20260830205527 | 91 | 250 | 1.0 | 3.0 | 0.00 | 0.00 | 0.00 | 64 | 1018.1 |
| 20260830204523 | 91 | 76 | 1.0 | 3.0 | 0.00 | 0.00 | 0.00 | 63 | 1018.2 |
| 20260830203519 | 92 | 78 | 1.0 | 3.0 | 0.00 | 0.00 | 0.00 | 62 | 1018.4 |
| 20260830202555 | 93 | 200 | 1.0 | 2.0 | 0.00 | 0.00 | 0.00 | 62 | 1018.6 |
| 20260830201532 | 93 | 182 | 2.0 | 3.0 | 0.00 | 0.00 | 0.00 | 63 | 1018.6 |
| 20260830200527 | 92 | 174 | 2.0 | 6.0 | 0.00 | 0.00 | 0.00 | 64 | 1018.7 |
| 20260830195522 | 92 | 262 | 0.0 | 1.0 | 0.00 | 0.00 | 0.00 | 65 | 1018.8 |
| 20260830194519 | 91 | 262 | 1.0 | 2.0 | 0.00 | 0.00 | 0.00 | 66 | 1019.0 |
| 20260830193535 | 92 | 257 | 1.0 | 4.0 | 0.00 | 0.00 | 0.00 | 64 | 1019.0 |
| 20260830192531 | 92 | 251 | 1.0 | 3.0 | 0.00 | 0.00 | 0.00 | 65 | 1019.3 |
| 20260830191526 | 92 | 257 | 2.0 | 4.0 | 0.00 | 0.00 | 0.00 | 66 | 1019.3 |
| 20260830190522 | 91 | 230 | 1.0 | 3.0 | 0.00 | 0.00 | 0.00 | 65 | 1019.5 |
| 20260830185517 | 91 | 255 | 2.0 | 7.0 | 0.00 | 0.00 | 0.00 | 68 | 1019.6 |
| 20260830184553 | 92 | 251 | 1.0 | 3.0 | 0.00 | 0.00 | 0.00 | 66 | 1019.7 |
| 20260830183529 | 92 | 194 | 2.0 | 7.0 | 0.00 | 0.00 | 0.00 | 66 | 1019.8 |
| 20260830182525 | 91 | 160 | 2.0 | 4.0 | 0.00 | 0.00 | 0.00 | 68 | 1020.1 |
| 20260830181520 | 91 | 46 | 1.0 | 4.0 | 0.00 | 0.00 | 0.00 | 67 | 1020.0 |
| 20260830180516 | 91 | 189 | 2.0 | 7.0 | 0.00 | 0.00 | 0.00 | 68 | 1020.2 |
| 20260830175531 | 91 | 157 | 1.0 | 4.0 | 0.00 | 0.00 | 0.00 | 69 | 1020.3 |
| 20260830174527 | 90 | 200 | 2.0 | 7.0 | 0.00 | 0.00 | 0.00 | 71 | 1020.4 |
| 20260830173522 | 89 | 166 | 2.0 | 4.0 | 0.00 | 0.00 | 0.00 | 72 | 1020.5 |
| 20260830172518 | 89 | 74 | 2.0 | 4.0 | 0.00 | 0.00 | 0.00 | 72 | 1020.7 |
| 20260830171534 | 90 | 114 | 2.0 | 7.0 | 0.00 | 0.00 | 0.00 | 71 | 1020.8 |
| 20260830170529 | 89 | 230 | 2.0 | 4.0 | 0.00 | 0.00 | 0.00 | 72 | 1020.8 |
| 20260830165525 | 88 | 78 | 2.0 | 8.0 | 0.00 | 0.00 | 0.00 | 73 | 1020.9 |
| 20260830164521 | 88 | 82 | 2.0 | 7.0 | 0.00 | 0.00 | 0.00 | 73 | 1021.1 |
| 20260830163517 | 88 | 177 | 3.0 | 8.0 | 0.00 | 0.00 | 0.00 | 76 | 1021.1 |
| 20260830162533 | 88 | 215 | 1.0 | 6.0 | 0.00 | 0.00 | 0.00 | 77 | 1021.2 |
| 20260830161548 | 88 | 164 | 2.0 | 8.0 | 0.00 | 0.00 | 0.00 | 78 | 1021.2 |
| 20260830160524 | 87 | 206 | 1.0 | 2.0 | 0.00 | 0.00 | 0.00 | 79 | 1021.3 |
| 20260830155519 | 87 | 209 | 1.0 | 2.0 | 0.00 | 0.00 | 0.00 | 79 | 1021.4 |
| 20260830154516 | 87 | 143 | 1.0 | 4.0 | 0.00 | 0.00 | 0.00 | 80 | 1021.3 |
| 20260830153531 | 87 | 219 | 2.0 | 4.0 | 0.00 | 0.00 | 0.00 | 80 | 1021.3 |
| 20260830152527 | 86 | 184 | 2.0 | 3.0 | 0.00 | 0.00 | 0.00 | 81 | 1021.3 |
| 20260830151523 | 87 | 191 | 2.0 | 6.0 | 0.00 | 0.00 | 0.00 | 80 | 1021.4 |
| 20260830150519 | 87 | 173 | 2.0 | 6.0 | 0.00 | 0.00 | 0.00 | 82 | 1021.3 |
| 20260830145535 | 86 | 192 | 2.0 | 4.0 | 0.00 | 0.00 | 0.00 | 83 | 1021.2 |
| 20260830144531 | 86 | 142 | 2.0 | 6.0 | 0.00 | 0.00 | 0.00 | 85 | 1021.2 |
| 20260830143527 | 85 | 215 | 1.0 | 3.0 | 0.00 | 0.00 | 0.00 | 87 | 1021.2 |
| 20260830142522 | 84 | 215 | 1.0 | 3.0 | 0.00 | 0.00 | 0.00 | 88 | 1021.3 |
| 20260830141518 | 84 | 265 | 2.0 | 4.0 | 0.00 | 0.00 | 0.00 | 89 | 1021.3 |
| 20260830140534 | 83 | 267 | 1.0 | 4.0 | 0.00 | 0.00 | 0.00 | 90 | 1021.3 |
| 20260830135530 | 82 | 267 | 1.0 | 2.0 | 0.00 | 0.00 | 0.00 | 91 | 1021.3 |
| 20260830134525 | 81 | 169 | 1.0 | 3.0 | 0.00 | 0.00 | 0.00 | 92 | 1021.2 |
| 20260830133521 | 80 | 28 | 1.0 | 3.0 | 0.00 | 0.00 | 0.00 | 92 | 1021.1 |
| 20260830132537 | 79 | 65 | 1.0 | 3.0 | 0.00 | 0.00 | 0.00 | 93 | 1021.1 |
| 20260830131533 | 78 | 60 | 1.0 | 3.0 | 0.00 | 0.00 | 0.00 | 93 | 1020.9 |
| 20260830130528 | 78 | 40 | 1.0 | 2.0 | 0.00 | 0.00 | 0.00 | 94 | 1020.9 |
| 20260830125524 | 77 | 40 | 1.0 | 2.0 | 0.00 | 0.00 | 0.00 | 94 | 1020.8 |
| 20260830124521 | 76 | 40 | 0.0 | 1.0 | 0.00 | 0.00 | 0.00 | 94 | 1020.8 |
| 20260830123516 | 75 | 41 | 0.0 | 1.0 | 0.00 | 0.00 | 0.00 | 94 | 1020.6 |
| 20260830122532 | 74 | 41 | 0.0 | 1.0 | 0.00 | 0.00 | 0.00 | 94 | 1020.5 |
| 20260830121528 | 73 | 41 | 0.0 | 1.0 | 0.00 | 0.00 | 0.00 | 94 | 1020.4 |
| 20260830120524 | 73 | 0.0 | 0.0 | 0.00 | 0.00 | 0.00 | 94 | 1020.3 | |
| 20260830115520 | 73 | 41 | 0.0 | 1.0 | 0.00 | 0.00 | 0.00 | 94 | 1020.3 |
| 20260830114536 | 73 | 0.0 | 0.0 | 0.00 | 0.00 | 0.00 | 93 | 1020.2 | |
| 20260830113551 | 73 | 0.0 | 0.0 | 0.00 | 0.00 | 0.00 | 93 | 1020.3 | |
| 20260830112528 | 73 | 0.0 | 0.0 | 0.00 | 0.00 | 0.00 | 93 | 1020.2 | |
| 20260830111524 | 73 | 0.0 | 0.0 | 0.00 | 0.00 | 0.00 | 93 | 1019.9 | |
| 20260830110520 | 73 | 0.0 | 0.0 | 0.00 | 0.00 | 0.00 | 92 | 1019.9 | |
| 20260830105516 | 73 | 0.0 | 0.0 | 0.00 | 0.00 | 0.00 | 92 | 1019.9 | |
| 20260830104532 | 73 | 0.0 | 0.0 | 0.00 | 0.00 | 0.00 | 92 | 1019.6 | |
| 20260830103607 | 73 | 0.0 | 0.0 | 0.00 | 0.00 | 0.00 | 92 | 1019.5 | |
| 20260830102523 | 73 | 0.0 | 0.0 | 0.00 | 0.00 | 0.00 | 92 | 1019.5 | |
| 20260830101519 | 73 | 41 | 0.0 | 1.0 | 0.00 | 0.00 | 0.00 | 92 | 1019.4 |
| 20260830100555 | 73 | 0.0 | 0.0 | 0.00 | 0.00 | 0.00 | 91 | 1019.3 | |
| 20260830095531 | 74 | 0.0 | 0.0 | 0.00 | 0.00 | 0.00 | 91 | 1019.1 | |
| 20260830094527 | 74 | 0.0 | 0.0 | 0.00 | 0.00 | 0.00 | 91 | 1019.2 | |
| 20260830093523 | 74 | 41 | 0.0 | 1.0 | 0.00 | 0.00 | 0.00 | 91 | 1019.3 |
| 20260830092519 | 74 | 0.0 | 0.0 | 0.00 | 0.00 | 0.00 | 90 | 1019.2 | |
| 20260830091535 | 74 | 0.0 | 0.0 | 0.00 | 0.00 | 0.00 | 90 | 1019.2 | |
| 20260830090531 | 74 | 41 | 0.0 | 1.0 | 0.00 | 0.00 | 0.00 | 90 | 1019.2 |
| 20260830085527 | 75 | 0.0 | 0.0 | 0.00 | 0.00 | 0.00 | 89 | 1019.2 | |
| 20260830084523 | 75 | 0.0 | 0.0 | 0.00 | 0.00 | 0.00 | 89 | 1019.3 | |
| 20260830083518 | 75 | 0.0 | 0.0 | 0.00 | 0.00 | 0.00 | 89 | 1019.1 | |
| 20260830082614 | 76 | 0.0 | 0.0 | 0.00 | 0.00 | 0.00 | 88 | 1019.1 | |
| 20260830081530 | 76 | 0.0 | 0.0 | 0.00 | 0.00 | 0.00 | 88 | 1019.1 | |
| 20260830080526 | 76 | 41 | 0.0 | 1.0 | 0.00 | 0.00 | 0.00 | 88 | 1019.1 |
| 20260830075522 | 77 | 41 | 0.0 | 1.0 | 0.00 | 0.00 | 0.00 | 88 | 1019.0 |
| 20260830074558 | 77 | 0.0 | 0.0 | 0.00 | 0.00 | 0.00 | 87 | 1019.0 | |
| 20260830073534 | 77 | 41 | 0.0 | 1.0 | 0.00 | 0.00 | 0.00 | 87 | 1019.2 |
| 20260830072530 | 78 | 41 | 0.0 | 1.0 | 0.00 | 0.00 | 0.00 | 87 | 1019.1 |
| 20260830071526 | 78 | 41 | 0.0 | 1.0 | 0.00 | 0.00 | 0.00 | 87 | 1019.1 |
| 20260830070521 | 78 | 41 | 0.0 | 1.0 | 0.00 | 0.00 | 0.00 | 87 | 1019.2 |
| 20260830065517 | 78 | 41 | 0.0 | 2.0 | 0.00 | 0.00 | 0.00 | 87 | 1019.2 |
| 20260830064533 | 78 | 41 | 0.0 | 2.0 | 0.00 | 0.00 | 0.00 | 87 | 1019.2 |
| 20260830063549 | 78 | 41 | 0.0 | 2.0 | 0.00 | 0.00 | 0.00 | 87 | 1019.2 |
| 20260830062525 | 78 | 41 | 0.0 | 2.0 | 0.00 | 0.00 | 0.00 | 87 | 1019.1 |
| 20260830061521 | 78 | 57 | 0.0 | 3.0 | 0.00 | 0.00 | 0.00 | 87 | 1019.2 |
| 20260830060516 | 77 | 52 | 1.0 | 2.0 | 0.00 | 0.00 | 0.00 | 87 | 1019.1 |
| 20260830055532 | 77 | 52 | 0.0 | 1.0 | 0.00 | 0.00 | 0.00 | 87 | 1019.0 |
| 20260830054528 | 76 | 52 | 0.0 | 1.0 | 0.00 | 0.00 | 0.00 | 87 | 1019.2 |
| 20260830053524 | 76 | 0.0 | 0.0 | 0.00 | 0.00 | 0.00 | 86 | 1019.3 | |
| 20260830052520 | 76 | 52 | 0.0 | 1.0 | 0.00 | 0.00 | 0.00 | 86 | 1019.3 |
| 20260830051516 | 76 | 0.0 | 0.0 | 0.00 | 0.00 | 0.00 | 86 | 1019.4 | |
| 20260830050532 | 76 | 0.0 | 0.0 | 0.00 | 0.00 | 0.00 | 85 | 1019.4 | |
| 20260830045528 | 76 | 0.0 | 0.0 | 0.00 | 0.00 | 0.00 | 85 | 1019.3 | |
| 20260830044524 | 76 | 0.0 | 0.0 | 0.00 | 0.00 | 0.00 | 85 | 1019.4 | |
| 20260830043519 | 77 | 0.0 | 0.0 | 0.00 | 0.00 | 0.00 | 84 | 1019.5 | |
| 20260830042535 | 77 | 0.0 | 0.0 | 0.00 | 0.00 | 0.00 | 84 | 1019.4 | |
| 20260830041530 | 77 | 0.0 | 0.0 | 0.00 | 0.00 | 0.00 | 84 | 1019.5 | |
| 20260830040546 | 77 | 52 | 0.0 | 1.0 | 0.00 | 0.00 | 0.00 | 84 | 1019.5 |
| 20260830035521 | 78 | 0.0 | 0.0 | 0.00 | 0.00 | 0.00 | 83 | 1019.4 | |
| 20260830034517 | 78 | 52 | 0.0 | 2.0 | 0.00 | 0.00 | 0.00 | 83 | 1019.3 |
| 20260830033532 | 78 | 52 | 0.0 | 1.0 | 0.00 | 0.00 | 0.00 | 83 | 1019.3 |
| 20260830032528 | 78 | 0.0 | 0.0 | 0.00 | 0.00 | 0.00 | 82 | 1019.3 | |
| 20260830031524 | 78 | 52 | 0.0 | 1.0 | 0.00 | 0.00 | 0.00 | 82 | 1019.2 |
| 20260830030540 | 78 | 52 | 0.0 | 1.0 | 0.00 | 0.00 | 0.00 | 82 | 1019.3 |
| 20260830025516 | 78 | 52 | 0.0 | 1.0 | 0.00 | 0.00 | 0.00 | 81 | 1019.2 |
| 20260830024531 | 78 | 0.0 | 0.0 | 0.00 | 0.00 | 0.00 | 81 | 1019.2 |